SCP
0 0 0 0 0 0 0 0 0 0 0 0 0 0 0 0 0 0 0 0 0 0 0 0 0 0 0 0 0 0 0 0 0 0 0 0 0 0 0 0 0 0 0
1 1 0 0 0 0 0 0 0 0 0 0 0 0 0 0 0 0 0 0 0 1 1 0 0 0 0 0 0 0 0 0 0 0 0 0 0 0 0 0 0 0 0
1 1 1 1 1 1 0 0 0 0 0 0 0 0 0 0 0 0 0 0 0 1 1 1 1 0 1 1 1 1 1 1 1 1 0 0 0 0 0 0 0 0 0
1 1 1 1 1 1 1 1 0 0 0 0 1 1 1 1 1 0 0 0 0 1 1 1 1 1 1 1 1 1 1 1 1 1 1 0 0 0 0 0 0 0 0
2 2 2 1 1 1 1 1 1 1 1 1 1 1 1 1 1 1 1 1 1 1 1 1 1 1 1 1 1 1 1 1 1 1 1 1 0 0 0 0 0 0 0
2 3 2 2 2 1 1 1 1 1 1 1 1 1 1 1 1 1 1 1 1 1 1 1 1 1 1 1 1 1 1 1 1 1 1 1 1 0 0 0 0 0 0
3 3 3 2 2 2 2 1 1 1 1 1 1 1 1 1 1 1 1 1 0 0 1 1 1 1 1 1 1 1 1 1 1 1 1 1 1 0 0 0 0 0 0
3 3 3 3 2 2 2 1 1 1 1 1 1 1 0 0 0 1 0 0 0 0 1 1 1 1 1 1 1 1 1 1 1 1 1 1 1 0 0 0 0 0 0
3 3 2 2 2 2 1 1 1 1 1 1 1 1 1 0 0 0 0 0 0 1 1 1 1 1 1 1 1 0 1 1 1 1 1 1 1 0 0 0 0 0 0
2 2 2 1 1 1 1 1 1 0 0 0 1 1 1 1 0 0 0 0 0 0 0 0 0 0 1 1 1 0 0 0 1 1 1 1 1 0 0 0 0 0 0
1 1 1 1 1 1 1 0 0 0 0 0 0 0 1 1 0 0 0 0 0 0 0 0 0 0 0 0 0 0 0 0 0 0 0 1 0 0 0 0 0 0 0
0 0 0 0 0 0 0 0 0 0 0 0 0 0 0 0 0 0 0 0 0 0 0 0 0 0 0 0 0 0 0 0 0 0 0 0 0 0 0 0 0 0 0
0 0 0 0 0 0 0 0 0 0 0 0 0 0 0 0 0 0 0 0 0 0 0 0 0 0 0 1 1 0 0 0 0 0 0 0 0 0 0 0 0 0 0
0 0 0 0 0 0 0 0 0 0 0 0 0 0 0 0 0 0 0 0 0 0 0 0 0 0 0 1 1 1 0 0 0 0 0 0 0 0 0 0 0 0 0
0 0 0 0 0 0 0 0 0 0 0 0 0 0 0 0 0 0 0 0 0 0 0 0 0 0 0 0 0 1 1 0 0 0 0 0 0 0 0 0 0 0 0
0 0 0 0 0 0 0 0 0 0 0 0 0 0 0 0 0 0 0 0 0 0 0 0 0 0 0 0 0 1 1 0 0 0 0 0 0 0 0 0 0 0 0
0 0 0 0 0 0 0 0 0 0 0 0 0 0 0 0 0 0 0 0 0 0 0 0 0 0 0 0 0 0 0 0 0 0 0 0 0 0 0 0 0 0 0
0 0 0 0 0 0 0 0 0 0 0 0 0 0 0 0 0 0 0 0 0 0 0 0 0 0 0 0 0 0 0 0 0 0 0 0 0 0 0 0 0 0 0
0 0 0 0 0 0 0 0 0 0 0 0 0 0 0 0 0 0 0 0 0 0 0 0 0 0 0 0 0 0 0 0 0 0 0 0 0 0 0 0 0 0 0
0 0 0 0 0 0 0 0 0 0 0 0 0 0 0 0 0 0 0 0 0 0 0 0 0 0 0 0 0 0 0 0 0 0 0 0 0 0 0 0 0 0 0
0 0 0 0 0 0 0 0 0 0 0 0 0 0 0 0 0 0 0 0 0 0 0 0 0 0 0 0 0 0 0 0 0 0 0 0 0 0 0 0 0 0 0
0 0 0 0 0 0 0 0 0 0 0 0 0 0 0 0 0 0 0 0 0 0 0 0 0 0 0 0 0 0 0 0 0 0 0 0 0 0 0 0 0 0 0
0 0 0 0 0 0 0 0 0 0 0 0 0 0 0 0 0 0 0 0 0 0 0 0 0 0 0 0 0 0 0 0 -0 0 0 0 0 0 0 0 0 0 0
0 0 0 0 0 0 0 0 0 0 0 0 0 0 0 0 0 0 0 0 0 0 0 0 0 0 0 0 0 0 0 0 -0 -0 -0 0 0 0 0 0 0 0 0
0 0 0 0 0 0 0 0 0 0 0 0 0 0 0 0 0 0 0 0 0 0 0 0 0 0 0 0 0 0 0 0 0 0 0 0 0 0 0 0 0 0 0
0 0 0 0 0 0 0 -0 0 0 0 0 0 0 0 0 0 0 0 0 0 0 0 0 0 0 0 0 0 0 0 0 0 0 0 0 0 0 0 0 0 0 0
Wind_Speed
7 7 6 6 7 7 6 7 7 7 8 9 8 8 9 8 9 7 6 8 12 12 12 12 12 12 12 11 12 12 13 12 12 13 14 15 16 16 15 16 17 17 16
8 7 8 8 8 8 8 7 8 7 7 7 8 9 9 10 8 8 9 7 12 13 13 12 13 12 12 12 13 13 13 12 12 12 13 13 14 14 14 14 15 17 17
10 9 9 9 9 8 8 8 9 8 8 8 9 9 9 9 9 9 9 8 8 13 16 14 13 12 13 13 13 13 13 13 12 13 13 12 12 13 13 14 14 16 18
12 10 10 10 9 8 8 8 8 9 8 8 8 8 8 7 10 10 10 9 8 7 11 16 14 13 13 14 14 14 13 13 13 13 13 13 13 12 12 12 13 14 17
14 12 11 10 9 9 8 8 8 8 8 9 9 8 9 8 9 10 10 10 10 9 9 9 14 13 13 14 15 14 13 14 14 14 14 14 14 13 12 12 13 13 17
14 12 11 11 10 8 7 7 8 8 8 9 10 10 10 11 11 11 12 11 10 11 11 10 9 11 15 14 13 14 14 14 14 15 15 15 15 14 14 14 14 14 16
12 10 10 9 9 8 9 9 8 10 9 8 9 11 11 12 11 10 10 10 11 11 11 10 9 8 7 15 15 13 14 14 14 15 16 15 15 15 15 15 15 15 16
11 10 10 8 8 7 8 8 8 8 8 7 8 9 9 9 8 8 8 8 9 9 10 11 9 8 7 7 8 14 14 14 15 16 15 15 15 15 15 16 16 16 17
10 7 7 6 7 7 7 7 7 8 8 7 6 6 7 7 5 4 5 6 6 5 6 6 7 7 7 7 7 10 13 12 14 15 14 14 14 14 15 16 17 17 18
8 7 6 5 7 7 6 6 6 5 7 7 5 6 7 6 7 7 6 5 5 6 5 4 5 5 6 6 6 6 9 11 12 14 14 13 13 13 14 15 17 18 19
4 4 5 5 6 5 5 4 4 5 5 6 5 5 6 6 8 7 8 6 5 5 4 5 4 4 5 6 6 8 10 11 11 12 12 11 10 10 11 13 17 18 19
3 4 4 4 5 5 5 4 4 5 3 3 4 4 4 4 4 5 7 6 6 4 4 3 3 3 4 5 6 1 4 8 10 9 9 8 9 10 12 14 17 19 20
4 5 5 5 5 5 5 5 5 4 3 3 4 3 3 3 3 4 5 5 5 4 2 2 1 2 3 4 3 2 5 6 6 6 6 8 9 10 12 15 17 19 21
5 6 6 6 7 7 6 5 5 5 3 3 3 3 3 2 2 2 3 4 5 3 2 2 2 2 4 4 4 5 3 5 4 4 5 7 9 10 12 14 16 18 19
5 6 6 6 6 6 5 5 4 4 3 3 2 2 3 2 3 3 3 4 5 6 4 2 3 3 5 5 5 6 4 4 4 4 5 7 9 10 11 12 15 16 17
5 6 6 6 5 5 4 4 4 3 3 1 0 2 2 2 2 3 3 3 4 5 5 4 4 6 7 5 4 6 5 3 6 5 5 6 8 10 11 12 12 13 14
5 5 5 5 5 5 4 4 3 4 2 2 2 2 3 4 3 3 3 3 3 4 6 5 4 4 6 6 4 4 3 4 4 5 5 6 8 9 11 11 10 10 12
5 5 5 5 5 5 4 4 4 4 4 5 5 4 4 3 4 4 4 5 4 4 6 7 6 5 5 6 6 5 4 4 3 3 3 5 7 8 9 9 8 8 11
5 5 5 5 5 5 5 5 6 7 7 6 6 5 5 5 5 5 6 6 5 5 4 4 5 4 4 6 7 6 5 4 4 3 2 4 5 6 7 7 5 5 10
6 6 6 6 6 6 7 7 8 8 7 7 7 7 7 7 7 6 4 5 6 5 4 4 5 5 6 7 7 8 7 4 3 1 1 2 3 4 3 4 2 3 9
7 7 8 8 7 7 7 8 9 9 9 9 9 9 9 8 8 7 7 7 7 6 6 6 7 7 8 9 9 8 8 6 2 2 1 1 2 3 2 1 2 5 9
7 8 8 9 8 8 9 8 8 10 9 10 9 8 8 8 6 6 6 8 9 8 9 8 8 8 9 9 7 6 7 6 5 4 2 1 2 3 4 3 5 7 9
8 8 9 9 10 9 8 8 7 9 10 9 8 7 8 9 8 7 5 5 8 6 5 8 10 10 10 9 9 8 7 5 4 5 3 3 4 3 3 3 5 7 8
8 8 9 10 10 9 7 7 5 8 9 8 7 7 8 9 9 9 7 8 9 9 8 8 8 8 9 9 9 7 4 0 2 2 3 3 3 3 3 2 3 4 6
7 8 9 10 10 8 4 3 2 7 6 7 7 7 7 8 11 12 6 6 6 5 5 3 2 3 3 5 9 9 9 7 5 4 4 2 1 1 2 2 2 1 4
7 8 8 8 9 8 5 1 3 3 5 5 5 6 10 9 10 12 8 7 7 7 6 4 2 2 4 6 7 10 10 9 8 6 7 4 2 1 1 1 1 1 2
Wind_Direction
239 242 245 251 258 257 246 240 254 268 272 268 266 266 274 271 267 267 265 227 228 236 245 253 250 243 242 238 229 228 229 228 226 226 228 231 233 233 232 230 226 219 212
241 245 242 240 248 252 259 267 266 266 265 270 272 274 274 277 271 265 263 249 222 223 231 243 250 244 237 233 230 229 228 226 224 223 225 228 231 232 233 231 227 219 211
234 238 247 245 246 249 248 250 257 260 260 259 260 263 263 264 264 259 262 266 252 216 213 225 236 238 235 233 230 226 223 220 220 220 223 226 228 230 232 230 227 221 211
236 238 245 247 248 251 253 250 256 261 261 265 269 273 272 266 261 259 257 248 252 258 218 207 220 229 231 230 229 226 220 217 217 218 222 225 226 226 227 229 226 221 211
236 236 245 251 255 254 254 259 257 263 270 270 272 266 266 265 265 260 259 261 255 248 256 204 203 220 228 230 228 227 223 217 215 217 222 226 226 225 224 227 225 222 212
242 244 246 247 251 255 257 258 265 262 268 273 278 281 274 270 266 263 259 254 250 250 249 246 220 214 215 225 228 229 228 221 215 217 222 227 228 224 223 224 224 223 215
256 252 255 254 250 250 252 255 258 262 263 271 276 275 268 261 257 258 259 264 260 254 252 247 241 245 214 208 218 228 232 228 219 218 222 227 228 224 222 224 224 221 216
257 253 250 253 253 251 250 254 256 271 277 268 272 283 283 271 244 243 251 255 263 261 247 232 228 231 251 249 210 209 224 232 229 224 224 228 230 229 226 225 223 219 216
256 243 242 248 251 251 248 250 257 258 268 269 258 267 285 292 316 260 249 259 261 262 255 246 230 227 233 248 254 206 208 223 232 233 231 232 233 234 231 228 224 219 215
234 225 203 216 243 245 238 237 238 254 259 265 254 242 253 276 275 283 261 235 232 243 246 237 237 230 238 244 241 257 216 222 230 237 240 240 240 239 236 233 231 223 215
214 206 188 185 219 235 229 232 226 249 254 269 275 266 258 253 250 260 276 281 271 251 226 227 241 249 247 240 240 241 206 223 234 242 247 251 251 251 250 246 243 234 221
169 165 169 186 215 221 212 214 220 221 250 271 278 272 272 274 274 263 273 282 279 268 264 262 256 258 263 262 261 79 207 233 239 241 243 249 254 258 259 257 253 245 233
174 169 167 191 208 209 207 211 214 226 223 246 267 279 280 279 288 293 289 296 293 292 274 251 312 326 316 313 322 22 236 230 233 232 240 247 253 258 259 259 256 249 240
168 163 173 192 200 198 199 205 213 206 209 234 258 288 291 306 316 320 315 312 310 303 278 333 0 14 356 333 1 304 252 170 199 224 240 251 258 260 261 260 255 249 241
155 163 174 188 192 192 196 209 210 209 210 233 239 246 284 315 302 318 316 318 320 318 325 3 345 358 338 328 326 302 293 154 198 227 247 260 267 268 268 266 255 242 232
151 160 170 178 178 175 183 214 197 191 207 186 343 4 331 325 329 316 314 312 304 302 306 319 320 327 331 319 307 301 299 181 216 229 250 268 278 279 280 278 264 239 219
155 163 166 169 170 169 174 196 192 177 174 121 83 59 42 11 351 338 338 325 309 301 293 298 295 309 306 309 310 292 273 252 229 220 250 273 283 287 288 290 275 238 210
156 156 159 161 164 160 164 170 156 128 100 83 66 55 40 40 27 9 349 350 338 315 300 310 317 319 317 321 314 297 278 257 246 211 251 285 291 296 299 301 283 237 204
138 138 147 147 142 140 139 127 107 92 82 75 69 63 51 42 29 25 0 358 343 339 338 321 335 346 344 351 338 329 304 276 250 205 229 273 291 306 313 314 294 226 190
130 130 132 129 128 126 119 108 97 89 86 81 74 65 54 42 26 8 9 10 1 360 26 22 25 24 18 10 8 358 347 321 279 244 356 348 323 297 321 344 335 176 166
129 127 126 121 118 115 105 103 105 100 96 91 82 72 62 55 42 17 15 15 14 16 34 40 41 37 28 17 14 3 356 345 359 13 318 315 312 306 315 67 80 135 147
127 127 122 114 106 94 81 79 98 101 95 90 85 83 86 69 87 81 56 41 24 23 24 24 40 34 27 16 7 10 9 9 9 358 337 347 346 327 326 346 102 126 143
134 130 125 114 105 103 96 85 81 100 93 83 75 61 57 55 32 60 106 129 77 54 17 21 42 26 21 11 356 10 27 28 21 348 355 26 6 343 348 38 120 139 146
139 136 131 122 118 115 108 105 104 103 96 89 79 69 64 53 28 4 51 62 62 54 38 38 39 32 28 3 348 349 352 50 121 55 29 38 18 355 351 37 108 152 164
140 142 136 135 130 130 137 145 189 119 110 97 80 58 47 57 17 351 35 52 51 59 109 98 11 330 310 347 352 358 1 358 18 63 39 26 14 7 13 30 51 115 181
142 141 135 139 139 139 144 160 283 144 125 127 116 107 69 40 18 2 21 34 32 17 7 31 36 4 16 30 24 13 4 0 2 23 26 357 4 21 83 77 65 178 178